[[{"header":{"parameterUnit":"m.s-1","parameterCategory":1,"la1":30.2991,"la2":30.254,"lo1":-89.0895,"lo2":-89.0444,"dy":0.0017,"dx":0.0017,"nx":28,"ny":28,"refTime":"2024-09-30T09:00:00:Z","depth":0,"parameterNumber":2,"parameterNumberName":"U-component_of_WINDS"},"data":[0,0,0,0,0,0,0,0,0,0,0,0,0,0,0,0,0,0,0,0,0,0,0,0,0,0,0,0,0,0,0,0,0,0,0,0,0,0,0,0,0,0,0,0,0,0,0,0,0,0,0,0,0,0,0,0,0,0,-1.7677,-1.7677,0,-1.7696,-1.7696,-1.7697,-1.7682,-1.7682,-1.7681,-1.768,-1.7702,-1.7703,-1.7704,0,0,0,0,0,0,0,0,0,0,0,0,0,-1.7629,-1.763,-1.7677,-1.7677,-1.7677,-1.7696,-1.7696,-1.7697,-1.7682,-1.7682,-1.7681,-1.768,-1.7701,-1.7703,-1.7704,0,0,0,0,0,0,0,0,0,0,0,0,0,-1.7649,-1.763,-1.7677,-1.7672,-1.7672,-1.7696,-1.7696,-1.7697,-1.7683,-1.7682,-1.7681,-1.768,-1.7701,-1.7702,-1.7704,-1.7734,0,0,-1.7709,-1.771,0,0,0,0,0,0,0,0,-1.7648,-1.7651,-1.7673,-1.7673,-1.7673,-1.7686,-1.7687,-1.7709,-1.7683,-1.7679,-1.768,-1.7679,-1.7697,-1.7699,-1.7705,-1.7735,-1.7736,-1.771,-1.7711,-1.7711,-1.7712,0,0,0,0,0,0,0,-1.7647,-1.765,-1.7684,-1.7673,-1.7673,-1.767,-1.7672,-1.7691,-1.7693,-1.7679,-1.7678,-1.768,-1.7697,-1.7703,-1.7705,-1.7736,-1.7709,-1.7711,-1.7712,-1.7713,-1.7791,-1.7792,0,0,0,0,0,0,-1.7645,-1.7649,-1.7684,-1.7685,-1.7658,-1.7672,-1.7674,-1.7683,-1.7693,-1.7693,-1.7681,-1.768,-1.7701,-1.7703,-1.7706,-1.7741,-1.7711,-1.7713,-1.7714,-1.779,-1.7791,-1.7792,0,0,0,0,0,0,-1.7644,-1.7649,-1.7683,-1.7667,-1.7671,-1.7673,-1.7683,-1.7683,-1.769,-1.7694,-1.7695,-1.7687,-1.77,-1.7704,-1.7727,-1.7742,-1.7714,-1.7715,-1.7789,-1.779,-1.7792,-1.7812,0,0,0,0,0,0,-1.7643,-1.7648,-1.7659,-1.7667,-1.7672,-1.7703,-1.7684,-1.7684,-1.7692,-1.7691,-1.77,-1.7701,-1.77,-1.7724,-1.7728,-1.7743,-1.7717,-1.7787,-1.7789,-1.7791,-1.781,-1.7814,-1.7817,0,0,0,0,0,-1.7641,-1.7664,-1.766,-1.7664,-1.7685,-1.7704,-1.7707,-1.7705,-1.7694,-1.7705,-1.7708,-1.7701,-1.7739,-1.7727,-1.7731,-1.7747,-1.7786,-1.7789,-1.7791,-1.7808,-1.7813,-1.7817,0,0,0,0,0,0,-1.7659,-1.7665,-1.766,-1.7687,-1.7695,-1.7702,-1.7716,-1.771,-1.7722,-1.772,-1.7717,-1.7719,-1.7743,-1.7748,-1.7733,-1.7776,-1.7761,-1.7765,-1.7773,-1.7777,-1.7781,-1.7779,-1.7718,0,0,0,0,0,-1.7666,-1.768,-1.7685,-1.7708,-1.7712,-1.7713,-1.7721,-1.7719,-1.7727,-1.7731,-1.7736,-1.7745,-1.7759,-1.7768,-1.7782,-1.781,-1.7812,-1.7824,-1.7827,-1.783,-1.7833,-1.7849,-1.7854,-1.78,-1.78,-1.78,0,0,-1.768,-1.7685,-1.7695,-1.7711,-1.7717,-1.7732,-1.7716,-1.7733,-1.7744,-1.7734,-1.7756,-1.776,-1.7769,-1.7796,-1.7807,-1.78,-1.7849,-1.7833,-1.7836,-1.7837,-1.7852,-1.7857,-1.7861,-1.7802,-1.7801,-1.7801,0,0,-1.7714,-1.7719,-1.7739,-1.7745,-1.7754,-1.7755,-1.776,-1.7767,-1.7769,-1.7791,-1.7784,-1.7797,-1.7822,-1.7829,-1.7836,-1.7873,-1.7867,-1.7878,-1.7897,-1.7912,-1.7916,-1.792,-1.7933,-1.7938,-1.788,-1.7881,-1.7881,0,-1.7731,-1.7753,-1.7749,-1.7767,-1.7774,-1.7765,-1.7785,-1.7791,-1.7805,-1.781,-1.7802,-1.7832,-1.7838,-1.7866,-1.7875,-1.7881,-1.7886,-1.7876,-1.7916,-1.792,-1.7923,-1.7936,-1.794,-1.7882,-1.7882,-1.7881,-1.7881,0,-1.7773,-1.7788,-1.7803,-1.7815,-1.7825,-1.7843,-1.7843,-1.7853,-1.785,-1.7852,-1.7874,-1.7881,-1.7896,-1.7902,-1.79,-1.793,-1.7925,-1.7916,-1.7901,-1.793,-1.7941,-1.7946,-1.7884,-1.7883,-1.7883,-1.7882,0,0,-1.7818,-1.7828,-1.7834,-1.7839,-1.7849,-1.7861,-1.7879,-1.7893,-1.7902,-1.7912,-1.7927,-1.7948,-1.794,-1.7948,-1.7946,-1.7959,-1.7988,-1.7949,-1.7949,-1.7956,-1.8021,-1.8028,-1.8033,-1.7984,-1.7985,-1.7985,-1.8021,0,-1.7852,-1.7883,-1.7881,-1.791,-1.7925,-1.7916,-1.7932,-1.794,-1.7942,-1.7955,-1.7958,-1.7972,-1.7961,-1.7966,-1.7978,-1.7982,-1.8001,-1.7979,-1.7998,-1.7999,-1.7996,-1.8039,-1.8046,-1.8079,-1.8025,-1.8026,-1.8026,0,-1.7896,-1.7907,-1.7937,-1.7945,-1.7951,-1.7965,-1.7978,-1.799,-1.7999,-1.7999,-1.8008,-1.8004,-1.8023,-1.8007,-1.8033,-1.8018,-1.8026,-1.8029,-1.803,-1.8032,-1.8014,-1.8042,-1.8089,-1.8094,-1.8034,-1.8033,-1.8032,0,-1.7926,-1.7948,-1.7969,-1.7974,-1.7983,-1.7994,-1.7998,-1.8006,-1.8015,-1.8026,-1.8031,-1.8045,-1.8052,-1.8063,-1.8062,-1.8051,-1.8089,-1.8073,-1.809,-1.809,-1.8098,-1.8097,-1.8147,-1.8103,-1.8103,-1.8103,-1.8103,0,-1.7964,-1.7983,-1.7982,-1.7996,-1.8017,-1.8014,-1.8036,-1.8039,-1.8046,-1.806,-1.8054,-1.8067,-1.8066,-1.808,-1.808,-1.8101,-1.8104,-1.8106,-1.8105,-1.8106,-1.8106,-1.8111,-1.8109,-1.8104,-1.8104,-1.8104,-1.8104,0,-1.8001,-1.8001,-1.8023,-1.803,-1.8033,-1.8048,-1.8054,-1.8067,-1.8068,-1.8086,-1.809,-1.8093,-1.8108,-1.8109,-1.8127,-1.8127,-1.8153,-1.8151,-1.815,-1.815,-1.8166,-1.8165,-1.8221,-1.8228,-1.818,-1.818,-1.8181,0,-1.8025,-1.8039,-1.8048,-1.8056,-1.8061,-1.8075,-1.8084,-1.8082,-1.8091,-1.8102,-1.8114,-1.8129,-1.814,-1.8166,-1.817,-1.8183,-1.8181,-1.82,-1.8183,-1.8183,-1.8181,-1.818,-1.8182,-1.8203,-1.8203,-1.8204,-1.8204,0,-1.8068,-1.8067,-1.808,-1.8092,-1.8102,-1.8112,-1.8121,-1.8129,-1.8128,-1.8139,-1.8154,-1.8163,-1.8182,-1.8197,-1.821,-1.8215,-1.821,-1.8209,-1.8214,-1.8215,-1.8214,-1.8215,-1.8159,-1.8208,-1.8208,-1.8208,-1.8207,-1.8207,-1.8099,-1.8112,-1.8119,-1.8133,-1.814,-1.8148,-1.8161,-1.8164,-1.8176,-1.8191,-1.8189,-1.8207,-1.8215,-1.8233,-1.8239,-1.8253,-1.8246,-1.8253,-1.8255,-1.8256,-1.8258,-1.8212,-1.8255,-1.8255,-1.8255,-1.8255,-1.8255,0,-1.8142,-1.8146,-1.8159,-1.8172,-1.8183,-1.8176,-1.8186,-1.8196,-1.8211,-1.822,-1.8231,-1.8249,-1.8264,-1.8269,-1.8283,-1.8293,-1.8291,-1.8297,-1.8296,-1.8297,-1.8263,-1.8257,-1.8298,-1.8298,-1.8298,-1.8298,-1.8298,-1.8298,-1.8165,-1.8186,-1.8186,-1.821,-1.8215,-1.8231,-1.8238,-1.8246,-1.8252,-1.8273,-1.8284,-1.8287,-1.8295,-1.8309,-1.8322,-1.8323,-1.8329,-1.8336,-1.8336,-1.8304,-1.83,-1.8295,-1.829,-1.8337,-1.8337,-1.8369,-1.8369,-1.8369]},{"header":{"parameterUnit":"m.s-1","parameterCategory":1,"la1":30.2991,"la2":30.254,"lo1":-89.0895,"lo2":-89.0444,"dy":0.0017,"dx":0.0017,"nx":28,"ny":28,"refTime":"2024-09-30T09:00:00:Z","depth":0,"parameterNumber":3,"parameterNumberName":"V-component_of_WINDS"},"data":[0,0,0,0,0,0,0,0,0,0,0,0,0,0,0,0,0,0,0,0,0,0,0,0,0,0,0,0,0,0,0,0,0,0,0,0,0,0,0,0,0,0,0,0,0,0,0,0,0,0,0,0,0,0,0,0,0,0,-2.8764,-2.8763,0,-2.874,-2.874,-2.8739,-2.8697,-2.8697,-2.8696,-2.8695,-2.867,-2.867,-2.867,0,0,0,0,0,0,0,0,0,0,0,0,0,-2.8773,-2.8773,-2.8764,-2.8763,-2.8763,-2.874,-2.874,-2.8739,-2.8698,-2.8697,-2.8696,-2.8695,-2.867,-2.867,-2.867,0,0,0,0,0,0,0,0,0,0,0,0,0,-2.8761,-2.8773,-2.8764,-2.874,-2.8737,-2.874,-2.874,-2.8739,-2.8698,-2.8697,-2.8695,-2.8694,-2.867,-2.867,-2.867,-2.8695,0,0,-2.8671,-2.8671,0,0,0,0,0,0,0,0,-2.8762,-2.8761,-2.8743,-2.8741,-2.8738,-2.872,-2.8734,-2.8724,-2.8698,-2.8713,-2.8695,-2.8694,-2.8688,-2.8686,-2.8685,-2.8694,-2.8693,-2.8671,-2.8671,-2.8671,-2.8671,0,0,0,0,0,0,0,-2.8763,-2.8762,-2.8754,-2.8743,-2.874,-2.873,-2.8727,-2.8732,-2.8707,-2.8711,-2.8708,-2.8706,-2.8686,-2.8685,-2.8684,-2.8692,-2.8671,-2.8671,-2.8671,-2.8671,-2.8722,-2.8723,0,0,0,0,0,0,-2.8767,-2.8763,-2.8755,-2.8754,-2.8747,-2.8731,-2.8727,-2.8727,-2.8707,-2.8703,-2.8707,-2.8704,-2.8685,-2.8684,-2.8683,-2.8711,-2.8671,-2.8671,-2.8671,-2.8721,-2.8722,-2.8723,0,0,0,0,0,0,-2.8768,-2.8767,-2.8756,-2.8757,-2.8755,-2.8732,-2.8732,-2.8728,-2.8726,-2.8704,-2.8699,-2.871,-2.8684,-2.8682,-2.8693,-2.871,-2.8671,-2.8671,-2.8719,-2.8721,-2.8723,-2.8768,0,0,0,0,0,0,-2.8768,-2.8767,-2.8776,-2.8758,-2.8755,-2.8766,-2.8733,-2.8728,-2.8726,-2.8722,-2.8705,-2.8701,-2.8683,-2.8693,-2.8693,-2.8709,-2.8671,-2.8717,-2.872,-2.8722,-2.8765,-2.8771,-2.8776,0,0,0,0,0,-2.8768,-2.8789,-2.8777,-2.8776,-2.8766,-2.8767,-2.8766,-2.8745,-2.8728,-2.8737,-2.8723,-2.8702,-2.8708,-2.8694,-2.8694,-2.871,-2.8716,-2.8719,-2.8722,-2.8762,-2.877,-2.8776,0,0,0,0,0,0,-2.881,-2.8787,-2.8772,-2.8788,-2.878,-2.876,-2.8771,-2.8753,-2.875,-2.8746,-2.8719,-2.8716,-2.873,-2.8721,-2.8706,-2.8734,-2.8709,-2.8712,-2.8739,-2.8746,-2.8752,-2.8754,-2.8671,0,0,0,0,0,-2.8821,-2.8824,-2.8804,-2.8819,-2.8816,-2.8795,-2.8794,-2.8779,-2.8769,-2.8766,-2.8752,-2.8744,-2.8744,-2.8744,-2.8743,-2.8763,-2.8759,-2.8774,-2.878,-2.8785,-2.8788,-2.8799,-2.8806,-2.8733,-2.8733,-2.8733,0,0,-2.8844,-2.8832,-2.8835,-2.8828,-2.882,-2.8824,-2.8792,-2.8797,-2.88,-2.8766,-2.8775,-2.8765,-2.8754,-2.877,-2.8776,-2.8763,-2.8808,-2.8789,-2.8793,-2.8793,-2.8803,-2.881,-2.8816,-2.8735,-2.8735,-2.8734,0,0,-2.8888,-2.8879,-2.8891,-2.8884,-2.8873,-2.8858,-2.8862,-2.8845,-2.8837,-2.8846,-2.8821,-2.8824,-2.8824,-2.8817,-2.8814,-2.8857,-2.8838,-2.8857,-2.8888,-2.8899,-2.8905,-2.891,-2.8927,-2.8933,-2.886,-2.886,-2.886,0,-2.8918,-2.8923,-2.89,-2.8908,-2.8906,-2.8875,-2.8888,-2.8882,-2.8871,-2.887,-2.8856,-2.8857,-2.8847,-2.8861,-2.8872,-2.887,-2.8873,-2.8859,-2.8906,-2.8911,-2.8915,-2.8931,-2.8937,-2.8863,-2.8863,-2.8862,-2.8862,0,-2.8961,-2.8965,-2.8977,-2.8968,-2.8967,-2.8977,-2.8956,-2.8957,-2.8942,-2.8929,-2.8939,-2.8926,-2.8923,-2.8925,-2.8909,-2.8937,-2.893,-2.8911,-2.8885,-2.8925,-2.8939,-2.8945,-2.8866,-2.8866,-2.8865,-2.8864,0,0,-2.9031,-2.9009,-2.9014,-2.901,-2.8995,-2.8998,-2.9007,-2.9004,-2.9007,-2.9,-2.9007,-2.9009,-2.8992,-2.8988,-2.8972,-2.8982,-2.9018,-2.8962,-2.8961,-2.8974,-2.9049,-2.9064,-2.9071,-2.9005,-2.9006,-2.9007,-2.9051,0,-2.9073,-2.9087,-2.9067,-2.9087,-2.9091,-2.9062,-2.907,-2.9063,-2.9051,-2.9053,-2.904,-2.9042,-2.9019,-2.9017,-2.9025,-2.9012,-2.9033,-2.9008,-2.9013,-2.9013,-2.9017,-2.9078,-2.9094,-2.9136,-2.9056,-2.9057,-2.9057,0,-2.9123,-2.912,-2.914,-2.9125,-2.9126,-2.9134,-2.913,-2.9132,-2.9123,-2.9114,-2.911,-2.9091,-2.91,-2.9075,-2.9086,-2.907,-2.907,-2.9064,-2.9065,-2.9066,-2.9038,-2.9082,-2.9149,-2.9155,-2.9066,-2.9065,-2.9064,0,-2.9174,-2.9174,-2.9186,-2.9183,-2.9166,-2.9173,-2.9166,-2.9155,-2.9155,-2.9151,-2.9151,-2.9148,-2.9147,-2.9146,-2.9127,-2.911,-2.9141,-2.9114,-2.9135,-2.9135,-2.9143,-2.9143,-2.9212,-2.9142,-2.9142,-2.9142,-2.9142,0,-2.9223,-2.9237,-2.9209,-2.9217,-2.9231,-2.9208,-2.9223,-2.9213,-2.9205,-2.921,-2.9185,-2.9191,-2.9165,-2.9168,-2.9153,-2.9166,-2.9165,-2.9158,-2.9155,-2.9161,-2.9162,-2.9162,-2.9159,-2.9143,-2.9143,-2.9143,-2.9142,0,-2.9282,-2.9264,-2.9276,-2.9259,-2.9255,-2.9267,-2.9252,-2.9259,-2.9246,-2.9253,-2.9254,-2.9233,-2.9236,-2.9217,-2.9215,-2.9205,-2.9226,-2.9216,-2.9229,-2.9226,-2.9248,-2.9247,-2.9321,-2.933,-2.9253,-2.9253,-2.9254,0,-2.9315,-2.9325,-2.931,-2.9312,-2.9306,-2.931,-2.931,-2.9287,-2.9288,-2.9279,-2.9287,-2.9288,-2.9287,-2.9293,-2.9278,-2.9277,-2.9268,-2.9294,-2.9268,-2.9275,-2.927,-2.927,-2.9271,-2.9299,-2.93,-2.9301,-2.9302,0,-2.9377,-2.9367,-2.9368,-2.9366,-2.9367,-2.9364,-2.936,-2.9363,-2.9338,-2.9341,-2.9343,-2.9343,-2.9342,-2.9343,-2.934,-2.9333,-2.9314,-2.931,-2.9315,-2.9323,-2.933,-2.9328,-2.9245,-2.9309,-2.9308,-2.9307,-2.9307,-2.9307,-2.9424,-2.9432,-2.9423,-2.9425,-2.9419,-2.9416,-2.9422,-2.941,-2.9412,-2.941,-2.9396,-2.9402,-2.9393,-2.9386,-2.9381,-2.9386,-2.9373,-2.938,-2.9382,-2.9384,-2.9389,-2.9329,-2.9385,-2.9384,-2.9384,-2.9384,-2.9384,0,-2.9485,-2.9478,-2.948,-2.9475,-2.9477,-2.9459,-2.9453,-2.9456,-2.9461,-2.9455,-2.9455,-2.9459,-2.946,-2.9446,-2.9445,-2.9451,-2.9443,-2.9452,-2.9452,-2.9451,-2.9399,-2.9396,-2.9459,-2.9459,-2.9459,-2.9459,-2.9459,-2.9459,-2.9517,-2.953,-2.952,-2.9531,-2.9523,-2.9528,-2.9527,-2.9524,-2.9519,-2.9524,-2.9525,-2.9516,-2.9507,-2.9506,-2.9507,-2.9502,-2.9504,-2.9517,-2.951,-2.9462,-2.9454,-2.9447,-2.9444,-2.9517,-2.9517,-2.9561,-2.9561,-2.9562]}]]